User: anonymous   Login
Location: Caltech
(34.1382°N, 118.1253°W)
Time: 03:24:56
(UTC-07:00)
Language:

Gbstr 26 Del rocket - Orbit

View from above orbital plane
View from above orbital plane
View from above satellite
View from above satellite

Ground track
Ground track

The orbit data is extracted from the following two-line orbital elements,

1 25876U 99041E   18113.60047361 -.00000002 +00000-0 +39426-4 0  9993
2 25876 051.7654 172.0429 0530988 212.7767 143.9162 14.04208687958219
Epoch (UTC): 23 April 2018 14:24:40
Eccentricity: 0.0530988
inclination: 51.7654°
perigee height: 494 km
apogee height: 1264 km
right ascension of ascending node: 172.0429°
argument of perigee: 212.7767°
revolutions per day: 14.04208687
mean anomaly at epoch: 143.9162°
orbit number at epoch: 95821

The dashed part of the orbit path shows where the satellite is in the earth's shadow,  

DLR